"Pseudo-MPEC" for P10LfTw

Created 2019 Jan 17 15:18:27 UT using Find_Orb

Click here for an explanation of pseudo-MPECs

 
 Astrometry: 
     P10LfTw  C2019 01 09?+.,[V8+A,qIXE+G_6pnZxQ%,L.iwAstrometryMt,40Lo]2f,kfF51
     P10LfTw  C2019 01 09@7qrhv$n^ml2gRFQnLFQ_g8PSX@^!W$8)PYTOGAPredacted;hsvF51
     P10LfTw  C2019 01 09ad7:Cr4'sF_2O5l.CAjV2i,,0/']ph!b)DZq%-=dsFSfUva5@XlSF51
     P10LfTw  C2019 01 09oXUpt8oT/t;M95MlU(CpcNdvVclick.XvWjQ'dCPrSK3ZH-dWj-NF51
     P10LfTw KC2019 01 10vC`TtqDKS.I)ZV.njLpQ7NADV]oXc7e`4Kn.w94P!]Y\9h*)nZ+(H21
     P10LfTw KC2019 01 10Wj\q%aeg8X!hZ^pQjZ^oD]%(ur[herelOL(+D@r\xN%22'(dK(xcH21
     P10LfTw KC2019 01 10oEKNQDO6Bo.%G\*ZIebg6E?y(gamPKlUgA,fJB.s+g@Aqj6c1L.QH21
     P10LfTw ^C2019 01 10.66860610 49 43.042+37 20 12.65   ~1AKI 22.04GVNEOCP568
     P10LfTw ^C2019 01 10.66955510 49 42.790+37 20 14.99   ~1AKI 22.02GVNEOCP568
     P10LfTw ^C2019 01 10.67050710 49 42.534+37 20 17.39   ~1AKI 22.05GVNEOCP568
     P10LfTw KC2019 01 17KK2'9S3%#0gv;Up\qMfor=48iBiIf;Df[p7mw*d/Wtw-5R#LXtSO291
     P10LfTw KC2019 01 17JPg6e7(X42XRv5'MBYFh7tuA)g`g\8,#(r:0*(wc[sRbFOX%O!p#291
     P10LfTw KC2019 01 17?hfLknx,Y(4VEI)x1O'D.0y$3upt9!H2i48[explanation\6go?291

Station data:
(291) LPL/Spacewatch II  (N31.961669 W111.599905)  US/Arizona.  Observers J.
   V. Scotti, R. S. McMillan. 1.8-m f/2.7 reflector + CCD.
(568) Mauna Kea  (N19.826116 W155.472200)  US/Hawaii.
(F51) Pan-STARRS 1, Haleakala  (N20.707235 W156.255910)  US/Hawaii.
   Observers N. Primak, A. Schultz, S. Watters, J. Thiel, T. Goggia. Measurer
   PS1 Science Consortium. 1.8-m Ritchey-Chrétien + CCD.
(H21) Astronomical Research Observatory, Westfield  (N39.483057 W87.968270)
   US/Illinois. 0.76-m f/3.0 astrograph + CCD.

Orbital elements:  P10LfTw
   Perihelion 2018 Sep 23.718401 +/- 0.138 TT = 17:14:29 (JD 2458385.218401)
Epoch 2019 Jan 17.0 TT = JDT 2458500.5   Earth MOID: 0.0310   Ve: 0.0017
M 123.65975690 +/- 0.08             (J2000 ecliptic)          AutoNEOCP
n   1.07267558 +/- 0.000599         Peri.  278.96546 +/- 0.10
a   0.94512761 +/- 0.000352         Node    53.99534 +/- 0.039
e   0.3071357 +/- 0.00268           Incl.    5.36601 +/- 0.038
P   0.92/335.60d           H 24.0   G  0.15   U  7.8  
q 0.65484511 +/- 0.00277    Q 1.23541011 +/- 0.0021
From 13 observations 2019 Jan. 9-17; mean residual 0".19
Residuals in arcseconds: 
190109 F51  .24-  .03+    190110 H21  .30-  .10-    190117 291  .02-  .21-    
190109 F51  .25+  .27-    190110 H21  .49+  .28+    190117 291  .10+  .40+    
190109 F51  .05-  .04+    190110 568  .09-  .08-    190117 291  .08-  .19-    
190109 F51  .02-  .18+    190110 568  .07-  .09-    
190110 H21  .12+  .06+    190110 568  .09-  .05-    

Ephemerides (geocentric):
Date (UTC) HH   RA              Dec         delta   r     elong  mag " sig PA
---- -- -- --  -------------   -----------  ------ ------ -----  --- ---- ---
2019 01 17 15  10 16 32.330   +41 52 31.13  .20521 1.1555 143.7 22.1 .110 176
2019 01 17 16  10 16 18.951   +41 53 57.09  .20525 1.1557 143.8 22.1 .124   2
2019 01 17 17  10 16 05.557   +41 55 22.87  .20529 1.1558 143.8 22.1 .139   7
2019 01 17 18  10 15 52.148   +41 56 48.47  .20532 1.1559 143.9 22.1 .155  10
2019 01 17 19  10 15 38.724   +41 58 13.89  .20536 1.1560 143.9 22.1 .172  14
2019 01 17 20  10 15 25.285   +41 59 39.14  .20539 1.1562 144.0 22.1 .189  16
2019 01 17 21  10 15 11.832   +42 01 04.20  .20543 1.1563 144.0 22.1 .207  18
2019 01 17 22  10 14 58.364   +42 02 29.08  .20547 1.1564 144.1 22.1 .225  20
2019 01 17 23  10 14 44.882   +42 03 53.78  .20551 1.1565 144.1 22.1 .244  22
2019 01 18 00  10 14 31.384   +42 05 18.30  .20554 1.1567 144.2 22.1 .263  23
2019 01 18 01  10 14 17.873   +42 06 42.64  .20558 1.1568 144.2 22.1 .283  24
2019 01 18 02  10 14 04.347   +42 08 06.79  .20562 1.1569 144.3 22.1 .302  25
2019 01 18 03  10 13 50.807   +42 09 30.76  .20566 1.1571 144.3 22.1 .322  26
2019 01 18 04  10 13 37.252   +42 10 54.54  .20569 1.1572 144.4 22.1 .343  27
2019 01 18 05  10 13 23.683   +42 12 18.14  .20573 1.1573 144.4 22.1 .363  27
2019 01 18 06  10 13 10.100   +42 13 41.55  .20577 1.1574 144.5 22.1 .384  28
2019 01 18 07  10 12 56.502   +42 15 04.78  .20581 1.1576 144.5 22.1 .405  29
2019 01 18 08  10 12 42.891   +42 16 27.82  .20585 1.1577 144.6 22.1 .426  29
2019 01 18 09  10 12 29.266   +42 17 50.68  .20589 1.1578 144.6 22.1 .448  30
2019 01 18 10  10 12 15.626   +42 19 13.34  .20593 1.1579 144.7 22.1 .470  30
2019 01 18 11  10 12 01.973   +42 20 35.82  .20597 1.1581 144.7 22.1 .492  30
2019 01 18 12  10 11 48.306   +42 21 58.11  .20601 1.1582 144.8 22.1 .514  31
2019 01 18 13  10 11 34.625   +42 23 20.21  .20605 1.1583 144.8 22.1 .536  31
2019 01 18 14  10 11 20.930   +42 24 42.12  .20609 1.1584 144.9 22.1 .559  31
2019 01 18 15  10 11 07.222   +42 26 03.84  .20613 1.1586 144.9 22.1 .582  31
2019 01 18 16  10 10 53.500   +42 27 25.36  .20617 1.1587 145.0 22.1 .605  32
2019 01 18 17  10 10 39.765   +42 28 46.70  .20622 1.1588 145.0 22.1 .628  32
2019 01 18 18  10 10 26.016   +42 30 07.85  .20626 1.1589 145.1 22.1 .652  32
2019 01 18 19  10 10 12.253   +42 31 28.80  .20630 1.1591 145.1 22.1 .675  32
2019 01 18 20  10 09 58.478   +42 32 49.56  .20634 1.1592 145.2 22.1 .699  32
2019 01 18 21  10 09 44.689   +42 34 10.12  .20638 1.1593 145.2 22.1 .723  32
2019 01 18 22  10 09 30.886   +42 35 30.49  .20643 1.1594 145.3 22.1 .748  33
2019 01 18 23  10 09 17.071   +42 36 50.67  .20647 1.1596 145.3 22.1 .772  33
2019 01 19 00  10 09 03.242   +42 38 10.65  .20651 1.1597 145.4 22.1 .797  33
2019 01 19 01  10 08 49.401   +42 39 30.44  .20656 1.1598 145.4 22.1 .822  33
2019 01 19 02  10 08 35.546   +42 40 50.02  .20660 1.1599 145.5 22.1 .847  33
2019 01 19 03  10 08 21.679   +42 42 09.42  .20664 1.1601 145.5 22.1 .872  33
2019 01 19 04  10 08 07.798   +42 43 28.61  .20669 1.1602 145.5 22.1 .898  33
2019 01 19 05  10 07 53.905   +42 44 47.61  .20673 1.1603 145.6 22.1 .923  33
2019 01 19 06  10 07 39.999   +42 46 06.41  .20678 1.1604 145.6 22.1 .949  33
2019 01 19 07  10 07 26.081   +42 47 25.01  .20682 1.1606 145.7 22.1 .976  33
2019 01 19 08  10 07 12.149   +42 48 43.41  .20687 1.1607 145.7 22.1 1.00  33
2019 01 19 09  10 06 58.206   +42 50 01.61  .20691 1.1608 145.8 22.1 1.03  33
2019 01 19 10  10 06 44.249   +42 51 19.61  .20696 1.1609 145.8 22.1 1.06  33
2019 01 19 11  10 06 30.281   +42 52 37.41  .20700 1.1610 145.9 22.1 1.08  33
2019 01 19 12  10 06 16.300   +42 53 55.01  .20705 1.1612 145.9 22.1 1.11  33
2019 01 19 13  10 06 02.307   +42 55 12.41  .20710 1.1613 146.0 22.1 1.14  33
2019 01 19 14  10 05 48.301   +42 56 29.61  .20714 1.1614 146.0 22.1 1.16  33